Time,TemperatureF,DewpointF,PressureIn,WindDirection,WindDirectionDegrees,WindSpeedMPH,WindSpeedGustMPH,Humidity,HourlyPrecipIn,Conditions,Clouds,dailyrainin,SoftwareType,DateUTC
2013-03-25 00:00:00,27.9,27.2,29.28,ESE,122,0.0,0.0,97,0.00,,,0.00,Wunderground v.1.15,2013-03-25 04:00:00,
2013-03-25 00:10:00,27.8,27.1,29.27,ESE,121,0.0,0.0,97,0.00,,,0.00,Wunderground v.1.15,2013-03-25 04:10:00,
2013-03-25 00:20:00,27.5,26.8,29.27,ESE,122,0.0,0.0,97,0.00,,,0.00,Wunderground v.1.15,2013-03-25 04:20:00,
2013-03-25 00:30:00,27.5,26.8,29.27,ESE,121,0.0,0.0,97,0.00,,,0.00,Wunderground v.1.15,2013-03-25 04:30:00,
2013-03-25 00:40:00,27.5,26.8,29.26,ESE,121,0.0,0.0,97,0.00,,,0.00,Wunderground v.1.15,2013-03-25 04:40:00,
2013-03-25 00:50:00,27.5,26.8,29.26,ESE,122,0.0,0.0,97,0.00,,,0.00,Wunderground v.1.15,2013-03-25 04:50:00,
2013-03-25 00:59:00,27.5,26.8,29.25,ESE,122,0.0,0.0,97,0.00,,,0.00,Wunderground v.1.15,2013-03-25 04:59:00,
2013-03-25 01:10:00,27.3,26.6,29.25,ESE,121,0.0,0.0,97,0.00,,,0.00,Wunderground v.1.15,2013-03-25 05:10:00,
2013-03-25 01:20:00,27.1,26.4,29.24,ESE,121,0.0,0.0,97,0.00,,,0.00,Wunderground v.1.15,2013-03-25 05:20:00,
2013-03-25 01:30:00,26.9,26.2,29.24,ESE,122,0.0,0.0,97,0.00,,,0.00,Wunderground v.1.15,2013-03-25 05:30:00,
2013-03-25 01:40:00,26.9,26.2,29.24,ESE,121,0.0,0.0,97,0.00,,,0.00,Wunderground v.1.15,2013-03-25 05:40:00,
2013-03-25 01:50:00,26.8,26.1,29.24,ESE,122,0.0,0.0,97,0.00,,,0.00,Wunderground v.1.15,2013-03-25 05:50:00,
2013-03-25 02:00:00,26.8,26.1,29.24,ESE,122,0.0,0.0,97,0.00,,,0.00,Wunderground v.1.15,2013-03-25 06:00:00,
2013-03-25 02:10:00,26.9,26.2,29.24,ESE,122,0.0,0.0,97,0.00,,,0.00,Wunderground v.1.15,2013-03-25 06:10:00,
2013-03-25 02:20:00,27.0,26.3,29.26,ESE,121,0.0,0.0,97,0.00,,,0.00,Wunderground v.1.15,2013-03-25 06:20:00,
2013-03-25 02:30:00,27.0,26.3,29.25,ESE,122,0.0,0.0,97,0.00,,,0.00,Wunderground v.1.15,2013-03-25 06:30:00,
2013-03-25 02:40:00,27.0,26.3,29.25,ESE,121,0.0,0.0,97,0.00,,,0.00,Wunderground v.1.15,2013-03-25 06:40:00,
2013-03-25 02:50:00,27.2,26.5,29.25,ESE,121,0.0,0.0,97,0.00,,,0.00,Wunderground v.1.15,2013-03-25 06:50:00,
2013-03-25 03:00:00,27.3,26.6,29.25,ESE,121,0.0,0.0,97,0.00,,,0.00,Wunderground v.1.15,2013-03-25 07:00:00,
2013-03-25 03:10:00,27.5,26.8,29.25,ESE,122,0.0,0.0,97,0.00,,,0.00,Wunderground v.1.15,2013-03-25 07:10:00,
2013-03-25 03:20:00,27.7,27.0,29.25,ESE,122,0.0,0.0,97,0.00,,,0.00,Wunderground v.1.15,2013-03-25 07:20:00,
2013-03-25 03:30:00,27.8,27.1,29.25,ESE,122,0.0,0.0,97,0.00,,,0.00,Wunderground v.1.15,2013-03-25 07:30:00,
2013-03-25 03:40:00,27.9,27.2,29.24,ESE,122,0.0,0.0,97,0.00,,,0.00,Wunderground v.1.15,2013-03-25 07:40:00,
2013-03-25 03:50:00,27.9,27.2,29.24,ESE,122,0.0,0.0,97,0.00,,,0.00,Wunderground v.1.15,2013-03-25 07:50:00,
2013-03-25 04:00:00,28.0,27.3,29.24,ESE,122,0.0,0.0,97,0.00,,,0.00,Wunderground v.1.15,2013-03-25 08:00:00,
2013-03-25 04:10:00,27.9,27.2,29.23,ESE,121,0.0,0.0,97,0.00,,,0.00,Wunderground v.1.15,2013-03-25 08:10:00,
2013-03-25 04:20:00,27.9,27.2,29.23,ESE,122,0.0,0.0,97,0.00,,,0.00,Wunderground v.1.15,2013-03-25 08:20:00,
2013-03-25 04:30:00,28.0,27.3,29.23,ESE,122,0.0,0.0,97,0.00,,,0.00,Wunderground v.1.15,2013-03-25 08:30:00,
2013-03-25 04:40:00,28.1,27.4,29.23,ESE,122,0.0,0.0,97,0.00,,,0.00,Wunderground v.1.15,2013-03-25 08:40:00,
2013-03-25 04:50:00,28.3,27.6,29.22,ESE,122,0.0,0.0,97,0.00,,,0.00,Wunderground v.1.15,2013-03-25 08:50:00,
2013-03-25 05:00:00,28.1,27.4,29.23,ESE,122,0.0,0.0,97,0.00,,,0.00,Wunderground v.1.15,2013-03-25 09:00:00,
2013-03-25 05:10:00,27.9,27.2,29.23,ESE,122,0.0,0.0,97,0.00,,,0.00,Wunderground v.1.15,2013-03-25 09:10:00,
2013-03-25 05:20:00,27.9,27.2,29.23,ESE,122,0.0,0.0,97,0.00,,,0.00,Wunderground v.1.15,2013-03-25 09:20:00,
2013-03-25 05:30:00,27.9,27.2,29.22,ESE,122,0.0,0.0,97,0.00,,,0.00,Wunderground v.1.15,2013-03-25 09:30:00,
2013-03-25 05:40:00,28.3,27.6,29.23,ESE,122,0.0,0.0,97,0.00,,,0.00,Wunderground v.1.15,2013-03-25 09:40:00,
2013-03-25 05:50:00,28.3,27.6,29.23,ESE,121,0.0,0.0,97,0.00,,,0.00,Wunderground v.1.15,2013-03-25 09:50:00,
2013-03-25 06:00:00,28.2,27.5,29.23,ESE,121,0.0,0.0,97,0.00,,,0.00,Wunderground v.1.15,2013-03-25 10:00:00,
2013-03-25 06:10:00,28.2,27.5,29.24,ESE,122,0.0,0.0,97,0.00,,,0.00,Wunderground v.1.15,2013-03-25 10:10:00,
2013-03-25 06:20:00,28.3,27.3,29.24,ESE,121,0.0,0.0,96,0.00,,,0.00,Wunderground v.1.15,2013-03-25 10:20:00,
2013-03-25 06:30:00,28.4,27.2,29.24,ESE,121,0.0,0.0,95,0.00,,,0.00,Wunderground v.1.15,2013-03-25 10:30:00,
2013-03-25 06:40:00,28.4,26.9,29.24,ESE,121,0.0,0.0,94,0.00,,,0.00,Wunderground v.1.15,2013-03-25 10:40:00,
2013-03-25 06:50:00,28.5,27.0,29.24,ESE,121,0.0,0.0,94,0.00,,,0.00,Wunderground v.1.15,2013-03-25 10:50:00,
2013-03-25 07:00:00,28.6,26.8,29.24,ESE,121,0.0,0.0,93,0.00,,,0.00,Wunderground v.1.15,2013-03-25 11:00:00,
2013-03-25 07:10:00,28.5,26.5,29.25,ESE,121,0.0,0.0,92,0.00,,,0.00,Wunderground v.1.15,2013-03-25 11:10:00,
2013-03-25 07:20:00,28.4,26.1,29.25,ESE,122,0.0,0.0,91,0.00,,,0.00,Wunderground v.1.15,2013-03-25 11:20:00,
2013-03-25 07:30:00,28.3,25.7,29.25,ESE,121,0.0,0.0,90,0.00,,,0.00,Wunderground v.1.15,2013-03-25 11:30:00,
2013-03-25 07:40:00,28.2,25.6,29.25,ESE,121,0.0,0.0,90,0.00,,,0.00,Wunderground v.1.15,2013-03-25 11:40:00,
2013-03-25 07:50:00,28.0,25.4,29.25,ESE,121,0.0,0.0,90,0.00,,,0.00,Wunderground v.1.15,2013-03-25 11:50:00,
2013-03-25 08:00:00,27.9,25.1,29.25,ESE,121,0.0,0.0,89,0.00,,,0.00,Wunderground v.1.15,2013-03-25 12:00:00,
2013-03-25 08:10:00,27.7,24.6,29.26,ESE,121,0.0,0.0,88,0.00,,,0.00,Wunderground v.1.15,2013-03-25 12:10:00,
2013-03-25 08:20:00,27.4,24.3,29.26,ESE,122,0.0,0.0,88,0.00,,,0.00,Wunderground v.1.15,2013-03-25 12:20:00,
2013-03-25 08:30:00,27.6,24.2,29.26,ESE,122,0.0,0.0,87,0.00,,,0.00,Wunderground v.1.15,2013-03-25 12:30:00,
2013-03-25 08:40:00,27.6,24.0,29.26,ESE,121,0.0,0.0,86,0.00,,,0.00,Wunderground v.1.15,2013-03-25 12:40:00,
2013-03-25 08:49:00,27.7,23.5,29.27,ESE,122,0.0,0.0,84,0.00,,,0.00,Wunderground v.1.15,2013-03-25 12:49:00,
2013-03-25 08:59:00,27.8,23.6,29.27,ESE,122,0.0,0.0,84,0.00,,,0.00,Wunderground v.1.15,2013-03-25 12:59:00,
2013-03-25 09:10:00,28.0,23.8,29.26,ESE,122,0.0,0.0,84,0.00,,,0.00,Wunderground v.1.15,2013-03-25 13:10:00,
2013-03-25 09:20:00,28.0,23.8,29.26,ESE,122,0.0,0.0,84,0.00,,,0.00,Wunderground v.1.15,2013-03-25 13:20:00,
2013-03-25 09:29:00,28.0,23.5,29.27,ESE,121,0.0,0.0,83,0.00,,,0.00,Wunderground v.1.15,2013-03-25 13:29:00,
2013-03-25 09:40:00,28.0,23.8,29.27,ESE,122,0.0,0.0,84,0.00,,,0.00,Wunderground v.1.15,2013-03-25 13:40:00,
2013-03-25 09:50:00,28.3,23.8,29.27,ESE,122,0.0,0.0,83,0.00,,,0.00,Wunderground v.1.15,2013-03-25 13:50:00,
2013-03-25 10:00:00,28.3,23.8,29.27,ESE,122,0.0,0.0,83,0.00,,,0.00,Wunderground v.1.15,2013-03-25 14:00:00,
2013-03-25 10:09:00,28.8,24.0,29.27,ESE,122,0.0,0.0,82,0.00,,,0.00,Wunderground v.1.15,2013-03-25 14:09:00,
2013-03-25 10:20:00,29.0,23.6,29.28,ESE,122,0.0,0.0,80,0.00,,,0.00,Wunderground v.1.15,2013-03-25 14:20:00,
2013-03-25 10:30:00,29.4,24.0,29.29,ESE,122,0.0,0.0,80,0.00,,,0.00,Wunderground v.1.15,2013-03-25 14:30:00,
2013-03-25 10:40:00,28.5,24.0,29.29,ESE,122,0.0,0.0,83,0.00,,,0.00,Wunderground v.1.15,2013-03-25 14:40:00,
2013-03-25 10:49:00,28.1,25.0,29.29,ESE,122,0.0,0.0,88,0.00,,,0.01,Wunderground v.1.15,2013-03-25 14:49:00,
2013-03-25 11:00:00,29.2,25.8,29.29,ESE,122,0.0,0.0,87,0.00,,,0.01,Wunderground v.1.15,2013-03-25 15:00:00,
2013-03-25 11:10:00,29.3,24.2,29.29,ESE,123,0.0,0.0,81,0.00,,,0.01,Wunderground v.1.15,2013-03-25 15:10:00,
2013-03-25 11:20:00,30.2,24.8,29.29,SSE,154,9.0,15.0,80,0.00,,,0.01,Wunderground v.1.15,2013-03-25 15:20:00,
2013-03-25 11:30:00,29.9,23.9,29.30,SSE,154,15.0,16.0,78,0.00,,,0.01,Wunderground v.1.15,2013-03-25 15:30:00,
2013-03-25 11:40:00,30.4,23.4,29.30,SSE,154,17.0,20.0,75,0.00,,,0.01,Wunderground v.1.15,2013-03-25 15:40:00,
2013-03-25 11:50:00,30.4,25.6,29.30,SSE,154,15.0,15.0,82,0.00,,,0.01,Wunderground v.1.15,2013-03-25 15:50:00,
2013-03-25 12:00:00,30.4,24.4,29.31,SSE,154,14.0,14.0,78,0.00,,,0.01,Wunderground v.1.15,2013-03-25 16:00:00,
2013-03-25 12:10:00,31.0,25.2,29.30,SSE,154,14.0,20.0,79,0.00,,,0.01,Wunderground v.1.15,2013-03-25 16:10:00,
2013-03-25 12:20:00,31.4,26.5,29.31,SSE,168,14.0,23.0,82,0.00,,,0.02,Wunderground v.1.15,2013-03-25 16:20:00,
2013-03-25 12:30:00,30.8,24.1,29.31,South,188,20.0,20.0,76,0.06,,,0.03,Wunderground v.1.15,2013-03-25 16:30:00,
2013-03-25 12:40:00,31.0,24.9,29.32,South,188,18.0,18.0,78,0.00,,,0.03,Wunderground v.1.15,2013-03-25 16:40:00,
2013-03-25 12:50:00,31.0,25.6,29.33,South,188,16.0,16.0,80,0.00,,,0.03,Wunderground v.1.15,2013-03-25 16:50:00,
2013-03-25 13:00:00,31.0,24.6,29.33,South,190,15.0,20.0,77,0.00,,,0.03,Wunderground v.1.15,2013-03-25 17:00:00,
2013-03-25 13:10:00,30.9,23.6,29.32,SSW,205,16.0,16.0,74,0.00,,,0.03,Wunderground v.1.15,2013-03-25 17:10:00,
2013-03-25 13:20:00,30.9,21.6,29.32,SW,223,19.0,19.0,68,0.00,,,0.03,Wunderground v.1.15,2013-03-25 17:20:00,
2013-03-25 13:30:00,31.6,22.6,29.32,WSW,248,18.0,24.0,69,0.00,,,0.03,Wunderground v.1.15,2013-03-25 17:30:00,
2013-03-25 13:40:00,31.8,22.8,29.32,West,261,22.0,24.0,69,0.00,,,0.03,Wunderground v.1.15,2013-03-25 17:40:00,
2013-03-25 13:50:00,31.2,22.5,29.32,West,268,20.0,20.0,70,0.00,,,0.04,Wunderground v.1.15,2013-03-25 17:50:00,
2013-03-25 14:00:00,31.4,22.7,29.32,WNW,296,22.0,26.0,70,0.00,,,0.04,Wunderground v.1.15,2013-03-25 18:00:00,
2013-03-25 14:10:00,32.4,23.0,29.32,WNW,296,21.0,21.0,68,0.00,,,0.04,Wunderground v.1.15,2013-03-25 18:10:00,
2013-03-25 14:20:00,33.1,23.0,29.32,West,279,18.0,28.0,66,0.00,,,0.05,Wunderground v.1.15,2013-03-25 18:20:00,
2013-03-25 14:30:00,32.2,21.7,29.32,WNW,287,22.0,26.0,65,0.06,,,0.06,Wunderground v.1.15,2013-03-25 18:30:00,
2013-03-25 14:40:00,31.2,24.2,29.33,WNW,283,21.0,21.0,75,0.05,,,0.06,Wunderground v.1.15,2013-03-25 18:40:00,
2013-03-25 14:50:00,32.1,23.1,29.33,WNW,288,19.0,19.0,69,0.00,,,0.06,Wunderground v.1.15,2013-03-25 18:50:00,
2013-03-25 15:00:00,31.5,22.5,29.33,WNW,288,21.0,21.0,69,0.00,,,0.06,Wunderground v.1.15,2013-03-25 19:00:00,
2013-03-25 15:09:00,31.9,22.5,29.32,WNW,288,19.0,19.0,68,0.00,,,0.06,Wunderground v.1.15,2013-03-25 19:09:00,
2013-03-25 15:20:00,32.4,22.7,29.32,West,276,19.0,33.0,67,0.00,,,0.06,Wunderground v.1.15,2013-03-25 19:20:00,
2013-03-25 15:30:00,32.9,23.5,29.33,West,278,23.0,23.0,68,0.00,,,0.06,Wunderground v.1.15,2013-03-25 19:30:00,
2013-03-25 15:40:00,31.5,21.1,29.33,West,278,21.0,21.0,65,0.00,,,0.07,Wunderground v.1.15,2013-03-25 19:40:00,
2013-03-25 15:50:00,31.1,22.8,29.33,West,279,19.0,20.0,71,0.00,,,0.07,Wunderground v.1.15,2013-03-25 19:50:00,
2013-03-25 16:00:00,31.1,23.5,29.33,WNW,283,20.0,20.0,73,0.00,,,0.07,Wunderground v.1.15,2013-03-25 20:00:00,
2013-03-25 16:10:00,32.5,25.5,29.34,West,259,21.0,22.0,75,0.00,,,0.07,Wunderground v.1.15,2013-03-25 20:10:00,
2013-03-25 16:20:00,32.4,23.4,29.34,West,273,19.0,23.0,69,0.00,,,0.07,Wunderground v.1.15,2013-03-25 20:20:00,
2013-03-25 16:29:00,32.5,23.1,29.35,WNW,292,19.0,19.0,68,0.00,,,0.07,Wunderground v.1.15,2013-03-25 20:29:00,
2013-03-25 16:40:00,33.5,23.4,29.35,WNW,288,13.0,13.0,66,0.00,,,0.07,Wunderground v.1.15,2013-03-25 20:40:00,
2013-03-25 16:50:00,32.6,20.2,29.35,WNW,290,16.0,16.0,60,0.00,,,0.07,Wunderground v.1.15,2013-03-25 20:50:00,
2013-03-25 17:00:00,32.5,20.9,29.36,WNW,292,15.0,16.0,62,0.00,,,0.07,Wunderground v.1.15,2013-03-25 21:00:00,
2013-03-25 17:10:00,32.0,20.4,29.36,West,271,18.0,19.0,62,0.00,,,0.07,Wunderground v.1.15,2013-03-25 21:10:00,
2013-03-25 17:20:00,31.5,20.7,29.37,West,271,16.0,16.0,64,0.00,,,0.07,Wunderground v.1.15,2013-03-25 21:20:00,
2013-03-25 17:30:00,31.5,20.7,29.37,WNW,286,17.0,24.0,64,0.00,,,0.07,Wunderground v.1.15,2013-03-25 21:30:00,
2013-03-25 17:40:00,31.4,22.7,29.38,WNW,286,16.0,16.0,70,0.00,,,0.07,Wunderground v.1.15,2013-03-25 21:40:00,
2013-03-25 17:49:00,30.8,21.8,29.38,WNW,292,14.0,14.0,69,0.00,,,0.07,Wunderground v.1.15,2013-03-25 21:49:00,
2013-03-25 17:59:00,30.4,22.1,29.38,WNW,295,11.0,17.0,71,0.00,,,0.07,Wunderground v.1.15,2013-03-25 21:59:00,
2013-03-25 18:09:00,30.5,22.5,29.39,West,269,13.0,15.0,72,0.00,,,0.07,Wunderground v.1.15,2013-03-25 22:09:00,
2013-03-25 18:20:00,29.8,22.8,29.39,West,260,17.0,24.0,75,0.00,,,0.07,Wunderground v.1.15,2013-03-25 22:20:00,
2013-03-25 18:30:00,29.7,23.1,29.40,WNW,284,17.0,17.0,76,0.00,,,0.07,Wunderground v.1.15,2013-03-25 22:30:00,
2013-03-25 18:40:00,28.9,24.1,29.41,WNW,292,13.0,13.0,82,0.00,,,0.07,Wunderground v.1.15,2013-03-25 22:40:00,
2013-03-25 18:50:00,27.9,24.3,29.41,NW,317,12.0,12.0,86,0.00,,,0.07,Wunderground v.1.15,2013-03-25 22:50:00,
2013-03-25 19:00:00,27.5,23.9,29.41,WNW,293,16.0,21.0,86,0.00,,,0.07,Wunderground v.1.15,2013-03-25 23:00:00,
2013-03-25 19:10:00,27.9,22.5,29.42,NW,317,15.0,15.0,80,0.00,,,0.07,Wunderground v.1.15,2013-03-25 23:10:00,
2013-03-25 19:20:00,28.4,21.8,29.43,WNW,286,13.0,16.0,76,0.00,,,0.07,Wunderground v.1.15,2013-03-25 23:20:00,
2013-03-25 19:30:00,28.3,21.7,29.44,West,270,15.0,16.0,76,0.00,,,0.07,Wunderground v.1.15,2013-03-25 23:30:00,
2013-03-25 19:40:00,28.1,21.5,29.44,NW,311,12.0,14.0,76,0.00,,,0.07,Wunderground v.1.15,2013-03-25 23:40:00,
2013-03-25 19:50:00,28.2,21.0,29.45,West,271,15.0,16.0,74,0.00,,,0.07,Wunderground v.1.15,2013-03-25 23:50:00,
2013-03-25 20:00:00,28.3,20.7,29.45,West,273,16.0,17.0,73,0.00,,,0.07,Wunderground v.1.15,2013-03-26 00:00:00,
2013-03-25 21:00:00,27.7,20.8,29.47,WNW,292,16.0,16.0,75,0.00,,,0.07,Wunderground v.1.15,2013-03-26 01:00:00,
2013-03-25 21:10:00,27.9,20.7,29.47,WNW,301,16.0,16.0,74,0.00,,,0.07,Wunderground v.1.15,2013-03-26 01:10:00,
2013-03-25 21:20:00,27.8,20.9,29.47,WNW,288,18.0,18.0,75,0.00,,,0.07,Wunderground v.1.15,2013-03-26 01:20:00,
2013-03-25 21:30:00,27.6,21.0,29.48,WNW,291,18.0,18.0,76,0.00,,,0.07,Wunderground v.1.15,2013-03-26 01:30:00,
2013-03-25 21:40:00,27.4,21.1,29.48,WNW,287,16.0,16.0,77,0.00,,,0.07,Wunderground v.1.15,2013-03-26 01:40:00,
2013-03-25 21:50:00,27.4,21.1,29.49,WNW,288,17.0,17.0,77,0.00,,,0.07,Wunderground v.1.15,2013-03-26 01:50:00,
2013-03-25 22:00:00,27.3,21.3,29.48,West,280,18.0,19.0,78,0.00,,,0.07,Wunderground v.1.15,2013-03-26 02:00:00,
2013-03-25 22:10:00,27.1,21.7,29.48,NW,304,18.0,18.0,80,0.00,,,0.07,Wunderground v.1.15,2013-03-26 02:10:00,
2013-03-25 22:20:00,26.9,21.6,29.49,WNW,290,15.0,15.0,80,0.00,,,0.07,Wunderground v.1.15,2013-03-26 02:20:00,
2013-03-25 22:30:00,26.8,21.5,29.49,WNW,289,13.0,16.0,80,0.00,,,0.07,Wunderground v.1.15,2013-03-26 02:30:00,
2013-03-25 22:40:00,26.7,21.7,29.49,West,269,15.0,25.0,81,0.00,,,0.07,Wunderground v.1.15,2013-03-26 02:40:00,
2013-03-25 22:50:00,26.7,21.9,29.49,NW,307,18.0,18.0,82,0.00,,,0.07,Wunderground v.1.15,2013-03-26 02:50:00,
2013-03-25 23:00:00,26.6,22.1,29.50,NW,311,15.0,15.0,83,0.00,,,0.07,Wunderground v.1.15,2013-03-26 03:00:00,
2013-03-25 23:10:00,26.5,21.7,29.50,West,279,14.0,14.0,82,0.00,,,0.07,Wunderground v.1.15,2013-03-26 03:10:00,
2013-03-25 23:20:00,26.5,21.2,29.50,WNW,292,13.0,13.0,80,0.00,,,0.07,Wunderground v.1.15,2013-03-26 03:20:00,
2013-03-25 23:30:00,26.9,21.0,29.51,West,274,14.0,17.0,78,0.00,,,0.07,Wunderground v.1.15,2013-03-26 03:30:00,
2013-03-25 23:40:00,26.8,21.5,29.51,West,277,13.0,21.0,80,0.00,,,0.07,Wunderground v.1.15,2013-03-26 03:40:00,
2013-03-25 23:50:00,26.5,21.7,29.51,WNW,287,14.0,14.0,82,0.00,,,0.07,Wunderground v.1.15,2013-03-26 03:50:00,